Previsão horária em Barsinghausen

Hoje, 30 Outubro, Sexta-feira

Tempo Temperatura Precipitação Vento Pressão Humidade
00:00 +8°C° 1.6 mm 5 m/s 743 mmHg 92%
01:00 +9°C° 1.6 mm 6 m/s 742 mmHg 93%
02:00 +10°C° 0.9 mm 6 m/s 742 mmHg 92%
03:00 +10°C° 0.9 mm 7 m/s 742 mmHg 91%
04:00 +11°C° 0.9 mm 8 m/s 742 mmHg 90%
05:00 +11°C° 0 mm 8 m/s 742 mmHg 89%
06:00 +11°C° 0 mm 7 m/s 742 mmHg 89%
07:00 +11°C° 0 mm 7 m/s 743 mmHg 89%
08:00 +11°C° 0.7 mm 7 m/s 743 mmHg 89%
09:00 +11°C° 0.7 mm 8 m/s 743 mmHg 89%
10:00 +11°C° 0.7 mm 8 m/s 743 mmHg 89%
11:00 +11°C° 0.2 mm 8 m/s 744 mmHg 89%
12:00 +11°C° 0.2 mm 8 m/s 744 mmHg 88%
13:00 +11°C° 0.2 mm 8 m/s 744 mmHg 88%
14:00 +11°C° 0.2 mm 8 m/s 745 mmHg 88%
15:00 +12°C° 0.2 mm 7 m/s 745 mmHg 88%
16:00 +12°C° 0.2 mm 7 m/s 746 mmHg 88%
17:00 +12°C° 0.2 mm 7 m/s 746 mmHg 88%
18:00 +13°C° 0.2 mm 6 m/s 747 mmHg 89%
19:00 +11°C° 0.2 mm 6 m/s 747 mmHg 90%
20:00 +11°C° 0.1 mm 6 m/s 747 mmHg 90%
21:00 +12°C° 0.1 mm 5 m/s 748 mmHg 89%
22:00 +12°C° 0.1 mm 5 m/s 748 mmHg 89%
23:00 +12°C° 0 mm 4 m/s 748 mmHg 89%

Amanhã, 31 Outubro, Sábado

Tempo Temperatura Precipitação Vento Pressão Humidade
00:00 +12°C° 0 mm 4 m/s 748 mmHg 89%
01:00 +12°C° 0 mm 4 m/s 748 mmHg 89%
02:00 +12°C° 0 mm 4 m/s 748 mmHg 89%
03:00 +11°C° 0 mm 3 m/s 748 mmHg 90%
04:00 +11°C° 0 mm 3 m/s 748 mmHg 91%
05:00 +11°C° 0 mm 3 m/s 748 mmHg 91%
06:00 +10°C° 0 mm 3 m/s 748 mmHg 91%
07:00 +10°C° 0 mm 2 m/s 748 mmHg 92%
08:00 +11°C° 0 mm 3 m/s 748 mmHg 88%
09:00 +11°C° 0 mm 3 m/s 748 mmHg 85%
10:00 +12°C° 0 mm 3 m/s 748 mmHg 81%
11:00 +13°C° 0 mm 3 m/s 748 mmHg 77%
12:00 +14°C° 0 mm 4 m/s 747 mmHg 74%
13:00 +15°C° 0 mm 4 m/s 747 mmHg 70%
14:00 +14°C° 0 mm 4 m/s 746 mmHg 72%
15:00 +14°C° 0 mm 4 m/s 745 mmHg 75%
16:00 +13°C° 0 mm 3 m/s 745 mmHg 77%
17:00 +13°C° 0 mm 4 m/s 744 mmHg 79%
18:00 +12°C° 0 mm 4 m/s 744 mmHg 81%
19:00 +10°C° 0 mm 5 m/s 744 mmHg 83%
20:00 +10°C° 0 mm 5 m/s 743 mmHg 81%
21:00 +10°C° 0 mm 5 m/s 743 mmHg 79%
22:00 +11°C° 0 mm 6 m/s 743 mmHg 77%
23:00 +12°C° 0.1 mm 5 m/s 742 mmHg 79%

Depois de amanhã, 1 Novembro, Domingo

Tempo Temperatura Precipitação Vento Pressão Humidade
00:00 +12°C° 0.1 mm 5 m/s 742 mmHg 80%
01:00 +12°C° 0.1 mm 5 m/s 742 mmHg 82%
02:00 +12°C° 0 mm 4 m/s 742 mmHg 83%
03:00 +12°C° 0 mm 4 m/s 742 mmHg 84%
04:00 +11°C° 0 mm 4 m/s 742 mmHg 85%
05:00 +12°C° 0 mm 4 m/s 742 mmHg 85%
06:00 +12°C° 0 mm 4 m/s 741 mmHg 85%
07:00 +12°C° 0 mm 4 m/s 741 mmHg 85%
08:00 +12°C° 0.2 mm 4 m/s 741 mmHg 85%
09:00 +12°C° 0.2 mm 5 m/s 741 mmHg 84%
10:00 +13°C° 0.2 mm 5 m/s 740 mmHg 84%
11:00 +13°C° 0.4 mm 5 m/s 740 mmHg 83%
12:00 +13°C° 0.4 mm 5 m/s 739 mmHg 81%
13:00 +14°C° 0.4 mm 5 m/s 739 mmHg 80%
14:00 +14°C° 0.2 mm 6 m/s 738 mmHg 81%
15:00 +14°C° 0.2 mm 6 m/s 738 mmHg 82%
16:00 +14°C° 0.2 mm 7 m/s 737 mmHg 83%
17:00 +14°C° 0.1 mm 7 m/s 737 mmHg 83%
18:00 +14°C° 0.1 mm 7 m/s 737 mmHg 84%
19:00 +14°C° 0.1 mm 7 m/s 737 mmHg 84%
20:00 +15°C° 0.2 mm 7 m/s 736 mmHg 84%
21:00 +15°C° 0.2 mm 8 m/s 736 mmHg 83%
22:00 +16°C° 0.2 mm 9 m/s 735 mmHg 83%
23:00 +16°C° 0.4 mm 9 m/s 735 mmHg 84%

2 Novembro, Segunda-feira

Tempo Temperatura Precipitação Vento Pressão Humidade
00:00 +16°C° 0.4 mm 9 m/s 735 mmHg 86%
01:00 +16°C° 0.4 mm 9 m/s 735 mmHg 88%
02:00 +16°C° 0.6 mm 8 m/s 735 mmHg 87%
03:00 +16°C° 0.6 mm 8 m/s 735 mmHg 87%
04:00 +16°C° 0.6 mm 8 m/s 735 mmHg 86%
05:00 +16°C° 0.3 mm 8 m/s 735 mmHg 86%
06:00 +16°C° 0.3 mm 8 m/s 735 mmHg 86%
07:00 +16°C° 0.3 mm 9 m/s 735 mmHg 86%
08:00 +16°C° 0.1 mm 9 m/s 735 mmHg 83%
09:00 +17°C° 0.1 mm 9 m/s 735 mmHg 80%
10:00 +17°C° 0.1 mm 9 m/s 735 mmHg 77%
11:00 +17°C° 0 mm 9 m/s 735 mmHg 75%
12:00 +17°C° 0 mm 9 m/s 735 mmHg 73%
13:00 +18°C° 0 mm 9 m/s 735 mmHg 71%
14:00 +17°C° 0 mm 8 m/s 735 mmHg 71%
15:00 +17°C° 0 mm 7 m/s 735 mmHg 71%
16:00 +17°C° 0 mm 6 m/s 734 mmHg 72%
17:00 +17°C° 0.2 mm 7 m/s 735 mmHg 73%
18:00 +16°C° 0.2 mm 8 m/s 735 mmHg 74%
19:00 +16°C° 0.2 mm 9 m/s 736 mmHg 75%
20:00 +15°C° 0.2 mm 8 m/s 737 mmHg 77%
21:00 +13°C° 0.2 mm 8 m/s 738 mmHg 79%
22:00 +11°C° 0.2 mm 7 m/s 739 mmHg 81%
23:00 +10°C° 0.1 mm 7 m/s 740 mmHg 80%

3 Novembro, Terça-feira

Tempo Temperatura Precipitação Vento Pressão Humidade
00:00 +10°C° 0.1 mm 6 m/s 741 mmHg 78%
01:00 +9°C° 0.1 mm 6 m/s 742 mmHg 77%
02:00 +8°C° 0 mm 5 m/s 742 mmHg 79%
03:00 +7°C° 0 mm 5 m/s 743 mmHg 80%
04:00 +6°C° 0 mm 4 m/s 744 mmHg 82%
05:00 +7°C° 0 mm 3 m/s 744 mmHg 83%
06:00 +5°C° 0 mm 3 m/s 745 mmHg 84%
07:00 +5°C° 0 mm 3 m/s 745 mmHg 86%
08:00 +7°C° 0 mm 2 m/s 745 mmHg 81%
09:00 +8°C° 0 mm 2 m/s 746 mmHg 76%
10:00 +9°C° 0 mm 2 m/s 746 mmHg 71%
11:00 +9°C° 0 mm 2 m/s 746 mmHg 68%
12:00 +10°C° 0 mm 2 m/s 745 mmHg 65%
13:00 +11°C° 0 mm 3 m/s 745 mmHg 62%
14:00 +12°C° 0 mm 2 m/s 745 mmHg 66%
15:00 +10°C° 0 mm 2 m/s 745 mmHg 70%
16:00 +10°C° 0 mm 2 m/s 744 mmHg 73%
17:00 +9°C° 0.1 mm 3 m/s 744 mmHg 76%
18:00 +9°C° 0.1 mm 3 m/s 744 mmHg 78%
19:00 +8°C° 0.1 mm 3 m/s 745 mmHg 81%
20:00 +7°C° 0 mm 4 m/s 745 mmHg 80%
21:00 +6°C° 0 mm 5 m/s 745 mmHg 79%
22:00 +5°C° 0 mm 6 m/s 746 mmHg 78%
23:00 +6°C° 0 mm 5 m/s 746 mmHg 79%

4 Novembro, Quarta-feira

Tempo Temperatura Precipitação Vento Pressão Humidade
00:00 +6°C° 0 mm 5 m/s 746 mmHg 80%
01:00 +5°C° 0 mm 5 m/s 746 mmHg 81%
02:00 +5°C° 0 mm 5 m/s 746 mmHg 82%
03:00 +5°C° 0 mm 5 m/s 746 mmHg 83%
04:00 +5°C° 0 mm 5 m/s 746 mmHg 84%
05:00 +4°C° 0 mm 6 m/s 746 mmHg 84%
06:00 +4°C° 0 mm 6 m/s 746 mmHg 84%
07:00 +4°C° 0 mm 6 m/s 746 mmHg 84%
08:00 +5°C° 0 mm 6 m/s 747 mmHg 83%
09:00 +5°C° 0 mm 6 m/s 747 mmHg 81%
10:00 +6°C° 0 mm 7 m/s 748 mmHg 80%
11:00 +7°C° 0 mm 6 m/s 749 mmHg 79%
12:00 +8°C° 0 mm 6 m/s 749 mmHg 77%
13:00 +8°C° 0 mm 6 m/s 750 mmHg 75%
14:00 +8°C° 0.1 mm 5 m/s 750 mmHg 76%
15:00 +8°C° 0.1 mm 4 m/s 751 mmHg 77%
16:00 +7°C° 0.1 mm 4 m/s 751 mmHg 78%
17:00 +7°C° 0 mm 3 m/s 752 mmHg 81%
18:00 +6°C° 0 mm 2 m/s 753 mmHg 85%
19:00 +5°C° 0 mm 2 m/s 753 mmHg 88%
20:00 +5°C° 0 mm 2 m/s 754 mmHg 89%
21:00 +4°C° 0 mm 2 m/s 755 mmHg 89%
22:00 +5°C° 0 mm 1 m/s 755 mmHg 89%
23:00 +5°C° 0 mm 1 m/s 756 mmHg 89%
Mostrar mais